EAG5508 SBRF-GVAC

Flight info

Callsign EAG5508
Flight time 3h 36m
Altitude 39000
Route FNR UN857 ERETU/N0482F410 UN857 BOTNO/N0482F400 DCT SNT DCT AMDER AMDER1F
Aircraft A359/H-SDE2E3GHIJ3J4J5LM1ORWXY/LB1D1

Departure

Time 2026-05-08 11:59
Airport Recife/Guararapes - Gilberto Freyre International Airport (SBRF)

Arrival

Time 2026-05-08 15:35
Airport Amílcar Cabral International Airport (GVAC)
Time Latitude Longitude Altitude Speed Heading
2026-05-08 11:36 -8.13278 -34.91880 52 ft 0 kts 72°
2026-05-08 11:50 -8.13281 -34.91889 47 ft 4 kts 72°
2026-05-08 11:50 -8.13289 -34.91915 48 ft 4 kts 72°
2026-05-08 11:50 -8.13297 -34.91936 43 ft 4 kts 40°
2026-05-08 11:51 -8.13318 -34.91941 46 ft 5 kts 342°
2026-05-08 11:51 -8.13337 -34.91935 45 ft 1 kts 342°
2026-05-08 11:53 -8.13319 -34.91941 46 ft 9 kts 341°
2026-05-08 11:53 -8.13251 -34.91963 49 ft 12 kts 342°
2026-05-08 11:53 -8.13168 -34.91991 47 ft 13 kts 342°
2026-05-08 11:54 -8.13079 -34.92019 48 ft 13 kts 342°
2026-05-08 11:54 -8.12991 -34.92049 50 ft 14 kts 341°
2026-05-08 11:54 -8.12895 -34.92081 49 ft 16 kts 341°
2026-05-08 11:54 -8.12783 -34.92118 51 ft 18 kts 342°
2026-05-08 11:55 -8.12661 -34.92159 50 ft 19 kts 342°
2026-05-08 11:55 -8.12531 -34.92200 48 ft 21 kts 343°
2026-05-08 11:55 -8.12384 -34.92247 48 ft 23 kts 341°
2026-05-08 11:55 -8.12227 -34.92300 48 ft 25 kts 341°
2026-05-08 11:56 -8.12050 -34.92360 45 ft 28 kts 342°
2026-05-08 11:56 -8.11858 -34.92423 45 ft 29 kts 342°
2026-05-08 11:56 -8.11683 -34.92482 46 ft 16 kts 342°
2026-05-08 11:56 -8.11625 -34.92504 47 ft 0 kts 332°
2026-05-08 11:57 -8.11619 -34.92508 46 ft 8 kts 330°
2026-05-08 11:57 -8.11516 -34.92588 48 ft 22 kts 321°
2026-05-08 11:57 -8.11470 -34.92680 47 ft 11 kts 225°
2026-05-08 11:57 -8.11546 -34.92676 49 ft 13 kts 162°
2026-05-08 11:58 -8.11845 -34.92579 47 ft 81 kts 162°
2026-05-08 11:58 -8.12590 -34.92333 51 ft 142 kts 162°
2026-05-08 11:58 -8.13647 -34.91969 391 ft 165 kts 163°
2026-05-08 11:59 -8.15762 -34.91283 1677 ft 171 kts 162°
2026-05-08 11:59 -8.16970 -34.90865 1938 ft 196 kts 156°
2026-05-08 11:59 -8.18034 -34.89971 2489 ft 206 kts 123°
2026-05-08 11:59 -8.18375 -34.88559 3146 ft 219 kts 87°
2026-05-08 12:00 -8.17862 -34.87024 3459 ft 245 kts 64°
2026-05-08 12:00 -8.17006 -34.85475 3989 ft 258 kts 62°
2026-05-08 12:00 -8.16109 -34.83881 4597 ft 264 kts 63°
2026-05-08 12:00 -8.15217 -34.82257 4961 ft 265 kts 63°
2026-05-08 12:01 -8.14342 -34.80634 5525 ft 268 kts 63°
2026-05-08 12:01 -8.13452 -34.78977 6331 ft 269 kts 62°
2026-05-08 12:01 -8.12336 -34.77451 7073 ft 273 kts 47°
2026-05-08 12:01 -8.10829 -34.76278 7853 ft 276 kts 34°
2026-05-08 12:02 -8.09170 -34.75284 8658 ft 278 kts 32°
2026-05-08 12:02 -8.07481 -34.74328 9481 ft 280 kts 32°
2026-05-08 12:02 -8.05769 -34.73372 10212 ft 284 kts 31°
2026-05-08 12:02 -8.03991 -34.72380 10582 ft 302 kts 31°
2026-05-08 12:03 -8.02093 -34.71325 10860 ft 321 kts 31°
2026-05-08 12:03 -8.00110 -34.70225 11143 ft 338 kts 31°
2026-05-08 12:03 -7.98014 -34.69065 11583 ft 348 kts 31°
2026-05-08 12:03 -7.95882 -34.67887 12196 ft 351 kts 31°
2026-05-08 12:04 -7.93730 -34.66697 12842 ft 354 kts 31°
2026-05-08 12:04 -7.91558 -34.65497 13469 ft 357 kts 31°
2026-05-08 12:04 -7.89374 -34.64288 14052 ft 360 kts 31°
2026-05-08 12:04 -7.87160 -34.63064 14543 ft 365 kts 30°
2026-05-08 12:05 -7.84920 -34.61825 15002 ft 370 kts 30°
2026-05-08 12:05 -7.82648 -34.60569 15465 ft 375 kts 30°
2026-05-08 12:05 -7.80379 -34.59314 15931 ft 379 kts 30°
2026-05-08 12:05 -7.78055 -34.58029 16395 ft 383 kts 30°
2026-05-08 12:06 -7.75703 -34.56729 16862 ft 388 kts 30°
2026-05-08 12:06 -7.73329 -34.55417 17326 ft 392 kts 30°
2026-05-08 12:06 -7.70928 -34.54090 17826 ft 395 kts 30°
2026-05-08 12:06 -7.68504 -34.52751 18278 ft 399 kts 30°
2026-05-08 12:07 -7.66061 -34.51400 18697 ft 402 kts 30°
2026-05-08 12:07 -7.63603 -34.50043 19179 ft 403 kts 29°
2026-05-08 12:07 -7.61140 -34.48683 19680 ft 403 kts 29°
2026-05-08 12:07 -7.58678 -34.47323 20181 ft 405 kts 29°
2026-05-08 12:08 -7.56226 -34.45969 20581 ft 409 kts 29°
2026-05-08 12:08 -7.53726 -34.44588 21055 ft 411 kts 29°
2026-05-08 12:08 -7.51208 -34.43198 21497 ft 414 kts 29°
2026-05-08 12:08 -7.48670 -34.41796 21898 ft 418 kts 29°
2026-05-08 12:09 -7.46110 -34.40383 22315 ft 421 kts 29°
2026-05-08 12:09 -7.43538 -34.38963 22797 ft 423 kts 29°
2026-05-08 12:09 -7.40946 -34.37533 23213 ft 426 kts 29°
2026-05-08 12:09 -7.38345 -34.36098 23626 ft 428 kts 29°
2026-05-08 12:10 -7.35724 -34.34652 23967 ft 431 kts 29°
2026-05-08 12:10 -7.33086 -34.33197 24303 ft 434 kts 29°
2026-05-08 12:10 -7.30469 -34.31753 24657 ft 436 kts 28°
2026-05-08 12:10 -7.27795 -34.30279 25036 ft 439 kts 28°
2026-05-08 12:11 -7.25110 -34.28799 25420 ft 442 kts 28°
2026-05-08 12:11 -7.22403 -34.27307 25795 ft 446 kts 28°
2026-05-08 12:11 -7.19674 -34.25802 26189 ft 449 kts 27°
2026-05-08 12:11 -7.16925 -34.24288 26570 ft 452 kts 27°
2026-05-08 12:12 -7.14155 -34.22761 26954 ft 455 kts 27°
2026-05-08 12:12 -7.11364 -34.21223 27350 ft 459 kts 27°
2026-05-08 12:12 -7.08558 -34.19677 27751 ft 461 kts 27°
2026-05-08 12:12 -7.05773 -34.18143 28144 ft 464 kts 27°
2026-05-08 12:13 -7.02931 -34.16578 28512 ft 468 kts 27°
2026-05-08 12:13 -7.00066 -34.15000 28883 ft 471 kts 27°
2026-05-08 12:13 -6.97183 -34.13413 29250 ft 474 kts 26°
2026-05-08 12:13 -6.94283 -34.11816 29616 ft 477 kts 26°
2026-05-08 12:14 -6.91360 -34.10208 29967 ft 480 kts 26°
2026-05-08 12:14 -6.88422 -34.08591 30287 ft 483 kts 26°
2026-05-08 12:14 -6.85467 -34.06964 30594 ft 485 kts 26°
2026-05-08 12:14 -6.82505 -34.05334 30888 ft 487 kts 26°
2026-05-08 12:15 -6.79558 -34.03712 31186 ft 490 kts 26°
2026-05-08 12:15 -6.76564 -34.02066 31475 ft 492 kts 26°
2026-05-08 12:15 -6.73554 -34.00410 31764 ft 494 kts 26°
2026-05-08 12:15 -6.70539 -33.98752 32045 ft 496 kts 26°
2026-05-08 12:16 -6.67503 -33.97083 32320 ft 498 kts 26°
2026-05-08 12:16 -6.64458 -33.95409 32586 ft 500 kts 26°
2026-05-08 12:16 -6.61406 -33.93731 32851 ft 502 kts 26°
2026-05-08 12:16 -6.58334 -33.92042 33092 ft 503 kts 26°
2026-05-08 12:17 -6.55302 -33.90376 33321 ft 505 kts 26°
2026-05-08 12:17 -6.52209 -33.88677 33579 ft 507 kts 26°
2026-05-08 12:17 -6.49119 -33.86978 33932 ft 506 kts 26°
2026-05-08 12:17 -6.46036 -33.85284 34255 ft 504 kts 26°
2026-05-08 12:18 -6.42958 -33.83594 34548 ft 504 kts 26°
2026-05-08 12:18 -6.39888 -33.81907 34855 ft 503 kts 26°
2026-05-08 12:18 -6.36819 -33.80222 35128 ft 502 kts 26°
2026-05-08 12:18 -6.33755 -33.78540 35396 ft 501 kts 26°
2026-05-08 12:19 -6.30734 -33.76882 35692 ft 500 kts 26°
2026-05-08 12:19 -6.27685 -33.75208 36002 ft 499 kts 26°
2026-05-08 12:19 -6.24640 -33.73537 36261 ft 499 kts 26°
2026-05-08 12:19 -6.21593 -33.71866 36504 ft 499 kts 26°
2026-05-08 12:20 -6.18548 -33.70195 36751 ft 498 kts 25°
2026-05-08 12:20 -6.15507 -33.68527 37005 ft 498 kts 25°
2026-05-08 12:20 -6.12476 -33.66864 37307 ft 496 kts 25°
2026-05-08 12:20 -6.09447 -33.65203 37556 ft 495 kts 25°
2026-05-08 12:21 -6.06425 -33.63545 37774 ft 495 kts 25°
2026-05-08 12:21 -6.03400 -33.61887 37988 ft 495 kts 25°
2026-05-08 12:21 -6.00418 -33.60253 38192 ft 494 kts 25°
2026-05-08 12:21 -5.97403 -33.58599 38474 ft 493 kts 25°
2026-05-08 12:22 -5.94398 -33.56952 38688 ft 492 kts 25°
2026-05-08 12:22 -5.91395 -33.55307 38831 ft 492 kts 25°
2026-05-08 12:22 -5.88389 -33.53660 38959 ft 493 kts 25°
2026-05-08 12:22 -5.85378 -33.52010 38989 ft 493 kts 25°
2026-05-08 12:23 -5.79356 -33.48711 38988 ft 493 kts 25°
2026-05-08 12:23 -5.73376 -33.45437 38988 ft 493 kts 25°
2026-05-08 12:24 -5.67359 -33.42142 38988 ft 492 kts 25°
2026-05-08 12:24 -5.62370 -33.39411 38986 ft 490 kts 25°
2026-05-08 12:25 -5.56386 -33.36136 38986 ft 490 kts 25°
2026-05-08 12:25 -5.50404 -33.32863 38988 ft 490 kts 25°
2026-05-08 12:26 -5.43451 -33.29060 38991 ft 490 kts 25°
2026-05-08 12:26 -5.38437 -33.26318 38984 ft 490 kts 25°
2026-05-08 12:27 -5.32494 -33.23068 38985 ft 489 kts 25°
2026-05-08 12:27 -5.26516 -33.19801 38984 ft 489 kts 25°
2026-05-08 12:28 -5.20537 -33.16533 38988 ft 489 kts 25°
2026-05-08 12:28 -5.14560 -33.13267 38985 ft 490 kts 25°
2026-05-08 12:29 -5.08613 -33.10019 38986 ft 490 kts 25°
2026-05-08 12:29 -5.02617 -33.06744 38986 ft 492 kts 25°
2026-05-08 12:30 -4.96602 -33.03459 38991 ft 492 kts 25°
2026-05-08 12:30 -4.90588 -33.00176 38991 ft 492 kts 25°
2026-05-08 12:31 -4.84610 -32.96913 38981 ft 492 kts 25°
2026-05-08 12:31 -4.78597 -32.93631 38985 ft 492 kts 26°
2026-05-08 12:32 -4.72577 -32.90347 38995 ft 493 kts 26°
2026-05-08 12:32 -4.66545 -32.87056 38987 ft 494 kts 25°
2026-05-08 12:33 -4.60494 -32.83756 38985 ft 495 kts 25°
2026-05-08 12:33 -4.54476 -32.80475 38984 ft 495 kts 25°
2026-05-08 12:34 -4.48422 -32.77174 38977 ft 496 kts 25°
2026-05-08 12:34 -4.42375 -32.73878 38977 ft 494 kts 26°
2026-05-08 12:35 -4.36338 -32.70588 38978 ft 494 kts 26°
2026-05-08 12:35 -4.30347 -32.67324 38987 ft 493 kts 26°
2026-05-08 12:36 -4.24314 -32.64037 38979 ft 494 kts 26°
2026-05-08 12:36 -4.18282 -32.60752 38980 ft 494 kts 26°
2026-05-08 12:37 -4.12250 -32.57467 38977 ft 492 kts 26°
2026-05-08 12:37 -4.06277 -32.54215 38974 ft 492 kts 26°
2026-05-08 12:38 -4.00263 -32.50941 38969 ft 492 kts 26°
2026-05-08 12:38 -3.94250 -32.47668 38965 ft 492 kts 26°
2026-05-08 12:39 -3.88238 -32.44396 38965 ft 492 kts 26°
2026-05-08 12:39 -3.82254 -32.41159 38963 ft 492 kts 26°
2026-05-08 12:40 -3.76203 -32.37971 38972 ft 492 kts 25°
2026-05-08 12:40 -3.70145 -32.34793 38969 ft 492 kts 25°
2026-05-08 12:41 -3.64096 -32.31608 38971 ft 490 kts 25°
2026-05-08 12:41 -3.58065 -32.28425 38972 ft 490 kts 25°
2026-05-08 12:42 -3.52078 -32.25265 38976 ft 490 kts 25°
2026-05-08 12:42 -3.46048 -32.22083 38975 ft 490 kts 25°
2026-05-08 12:43 -3.40020 -32.18903 38979 ft 490 kts 25°
2026-05-08 12:43 -3.33989 -32.15722 38980 ft 490 kts 25°
2026-05-08 12:44 -3.28001 -32.12564 38980 ft 490 kts 25°
2026-05-08 12:44 -3.21959 -32.09407 38974 ft 490 kts 25°
2026-05-08 12:45 -3.15902 -32.06280 38972 ft 490 kts 25°
2026-05-08 12:45 -3.09847 -32.03153 38970 ft 489 kts 25°
2026-05-08 12:46 -3.03842 -32.00047 38972 ft 489 kts 25°
2026-05-08 12:46 -2.97800 -31.96920 38980 ft 489 kts 25°
2026-05-08 12:47 -2.91757 -31.93793 38973 ft 489 kts 25°
2026-05-08 12:47 -2.85711 -31.90664 38983 ft 489 kts 25°
2026-05-08 12:48 -2.79712 -31.87560 38981 ft 489 kts 25°
2026-05-08 12:48 -2.73674 -31.84436 38985 ft 489 kts 25°
2026-05-08 12:49 -2.67636 -31.81313 38973 ft 489 kts 25°
2026-05-08 12:49 -2.61598 -31.78190 38971 ft 488 kts 25°
2026-05-08 12:50 -2.55567 -31.75071 38972 ft 487 kts 25°
2026-05-08 12:50 -2.49591 -31.71981 38979 ft 487 kts 25°
2026-05-08 12:51 -2.40559 -31.67311 38974 ft 487 kts 25°
2026-05-08 12:52 -2.34538 -31.64198 38975 ft 487 kts 25°
2026-05-08 12:52 -2.25550 -31.59552 38975 ft 487 kts 25°
2026-05-08 12:53 -2.19541 -31.56446 38977 ft 486 kts 25°
2026-05-08 12:53 -2.13539 -31.53344 38973 ft 486 kts 25°
2026-05-08 12:54 -2.07535 -31.50242 38976 ft 485 kts 25°
2026-05-08 12:54 -2.01539 -31.47144 38974 ft 485 kts 25°
2026-05-08 12:55 -1.95588 -31.44069 38976 ft 485 kts 25°
2026-05-08 12:55 -1.89589 -31.40970 38976 ft 486 kts 26°
2026-05-08 12:56 -1.83580 -31.37866 38977 ft 486 kts 26°
2026-05-08 12:56 -1.77574 -31.34764 38977 ft 486 kts 26°
2026-05-08 12:57 -1.71563 -31.31659 38981 ft 486 kts 26°
2026-05-08 12:57 -1.65595 -31.28576 38977 ft 486 kts 26°
2026-05-08 12:58 -1.59585 -31.25473 38972 ft 487 kts 26°
2026-05-08 12:58 -1.53567 -31.22365 38971 ft 487 kts 26°
2026-05-08 12:59 -1.47546 -31.19256 38977 ft 487 kts 26°
2026-05-08 12:59 -1.41564 -31.16167 38972 ft 487 kts 26°
2026-05-08 13:00 -1.35546 -31.13060 38984 ft 487 kts 26°
2026-05-08 13:00 -1.29527 -31.09952 38985 ft 487 kts 26°
2026-05-08 13:01 -1.23501 -31.06841 38981 ft 488 kts 26°
2026-05-08 13:01 -1.17472 -31.03729 38980 ft 488 kts 26°
2026-05-08 13:02 -1.11482 -31.00637 38977 ft 488 kts 26°
2026-05-08 13:02 -1.05452 -30.97525 38984 ft 488 kts 26°
2026-05-08 13:03 -0.99424 -30.94413 38978 ft 487 kts 26°
2026-05-08 13:03 -0.93421 -30.91315 38977 ft 485 kts 26°
2026-05-08 13:04 -0.87467 -30.88239 38977 ft 485 kts 26°
2026-05-08 13:04 -0.81482 -30.85142 38983 ft 485 kts 26°
2026-05-08 13:05 -0.75493 -30.82044 38982 ft 485 kts 26°
2026-05-08 13:05 -0.69508 -30.78949 38976 ft 485 kts 26°
2026-05-08 13:06 -0.63515 -30.75850 38979 ft 485 kts 26°
2026-05-08 13:06 -0.57532 -30.72757 38974 ft 484 kts 26°
2026-05-08 13:07 -0.51588 -30.69684 38984 ft 484 kts 26°
2026-05-08 13:07 -0.45606 -30.66591 38978 ft 484 kts 26°
2026-05-08 13:08 -0.39623 -30.63498 38980 ft 484 kts 26°
2026-05-08 13:08 -0.33642 -30.60406 38979 ft 484 kts 26°
2026-05-08 13:09 -0.27698 -30.57333 38983 ft 484 kts 26°
2026-05-08 13:09 -0.21717 -30.54241 38981 ft 484 kts 26°
2026-05-08 13:10 -0.15734 -30.51147 38981 ft 484 kts 26°
2026-05-08 13:10 -0.09756 -30.48057 38979 ft 484 kts 26°
2026-05-08 13:11 -0.03773 -30.44964 38978 ft 484 kts 26°
2026-05-08 13:11 0.02170 -30.41891 38979 ft 484 kts 26°
2026-05-08 13:12 0.08155 -30.38797 38967 ft 485 kts 26°
2026-05-08 13:12 0.14145 -30.35701 38979 ft 485 kts 26°
2026-05-08 13:13 0.20140 -30.32601 38984 ft 485 kts 26°
2026-05-08 13:13 0.26091 -30.29522 38983 ft 485 kts 26°
2026-05-08 13:14 0.32084 -30.26422 38975 ft 485 kts 26°
2026-05-08 13:14 0.38082 -30.23321 38979 ft 486 kts 26°
2026-05-08 13:15 0.44090 -30.20214 38978 ft 486 kts 26°
2026-05-08 13:15 0.50056 -30.17128 38979 ft 486 kts 26°
2026-05-08 13:16 0.56068 -30.14018 38988 ft 486 kts 26°
2026-05-08 13:16 0.62078 -30.10909 38986 ft 486 kts 26°
2026-05-08 13:17 0.68091 -30.07798 38978 ft 487 kts 26°
2026-05-08 13:17 0.74068 -30.04706 38981 ft 487 kts 26°
2026-05-08 13:18 0.80087 -30.01592 38987 ft 487 kts 26°
2026-05-08 13:18 0.86104 -29.98479 38983 ft 487 kts 26°
2026-05-08 13:19 0.92127 -29.95363 38970 ft 487 kts 26°
2026-05-08 13:19 0.98102 -29.92271 38975 ft 487 kts 26°
2026-05-08 13:20 1.04116 -29.89160 38982 ft 487 kts 26°
2026-05-08 13:20 1.10128 -29.86049 38979 ft 487 kts 26°
2026-05-08 13:21 1.16138 -29.82939 38985 ft 486 kts 26°
2026-05-08 13:21 1.22104 -29.79851 38983 ft 485 kts 26°
2026-05-08 13:22 1.28098 -29.76750 38975 ft 485 kts 26°
2026-05-08 13:22 1.34087 -29.73650 38981 ft 485 kts 26°
2026-05-08 13:23 1.40098 -29.70539 38981 ft 488 kts 26°
2026-05-08 13:23 1.46128 -29.67399 38982 ft 489 kts 26°
2026-05-08 13:24 1.52114 -29.64254 38976 ft 489 kts 26°
2026-05-08 13:24 1.58136 -29.61092 38982 ft 489 kts 26°
2026-05-08 13:25 1.64162 -29.57935 38982 ft 489 kts 26°
2026-05-08 13:25 1.70150 -29.54800 38985 ft 490 kts 27°
2026-05-08 13:26 1.76203 -29.51631 38986 ft 492 kts 27°
2026-05-08 13:26 1.82264 -29.48457 38985 ft 492 kts 27°
2026-05-08 13:27 1.88332 -29.45279 38983 ft 492 kts 27°
2026-05-08 13:27 1.94353 -29.42125 38980 ft 492 kts 27°
2026-05-08 13:28 2.00417 -29.38949 38980 ft 492 kts 27°
2026-05-08 13:28 2.06474 -29.35776 38982 ft 491 kts 27°
2026-05-08 13:29 2.12521 -29.32608 38982 ft 491 kts 27°
2026-05-08 13:29 2.18528 -29.29461 38982 ft 491 kts 27°
2026-05-08 13:30 2.24574 -29.26293 38978 ft 491 kts 27°
2026-05-08 13:30 2.30623 -29.23122 38984 ft 492 kts 26°
2026-05-08 13:31 2.36706 -29.19935 38979 ft 494 kts 26°
2026-05-08 13:31 2.42786 -29.16749 38980 ft 493 kts 26°
2026-05-08 13:32 2.48825 -29.13583 38980 ft 493 kts 26°
2026-05-08 13:32 2.54899 -29.10398 38974 ft 493 kts 26°
2026-05-08 13:33 2.60974 -29.07213 38981 ft 493 kts 26°
2026-05-08 13:33 2.67048 -29.04028 38975 ft 493 kts 26°
2026-05-08 13:34 2.73070 -29.00870 38972 ft 490 kts 27°
2026-05-08 13:34 2.79103 -28.97706 38966 ft 489 kts 27°
2026-05-08 13:35 2.85134 -28.94542 38981 ft 490 kts 27°
2026-05-08 13:35 2.91195 -28.91362 38980 ft 493 kts 27°
2026-05-08 13:36 2.97233 -28.88195 38968 ft 494 kts 27°
2026-05-08 13:36 3.03318 -28.85002 39128 ft 494 kts 27°
2026-05-08 13:37 3.06361 -28.83404 39321 ft 493 kts 27°
2026-05-08 13:37 3.09396 -28.81812 39483 ft 493 kts 26°
2026-05-08 13:37 3.12430 -28.80219 39654 ft 492 kts 26°
2026-05-08 13:37 3.15467 -28.78627 39802 ft 492 kts 26°
2026-05-08 13:38 3.18500 -28.77041 39958 ft 492 kts 26°
2026-05-08 13:38 3.21490 -28.75478 40087 ft 492 kts 26°
2026-05-08 13:38 3.24524 -28.73892 40224 ft 492 kts 26°
2026-05-08 13:38 3.27555 -28.72308 40362 ft 491 kts 26°
2026-05-08 13:39 3.30584 -28.70724 40490 ft 491 kts 26°
2026-05-08 13:39 3.33611 -28.69140 40623 ft 491 kts 26°
2026-05-08 13:39 3.36640 -28.67556 40740 ft 491 kts 26°
2026-05-08 13:39 3.39670 -28.65971 40843 ft 491 kts 25°
2026-05-08 13:40 3.42661 -28.64406 40944 ft 492 kts 25°
2026-05-08 13:40 3.45693 -28.62819 40973 ft 492 kts 25°
2026-05-08 13:40 3.51761 -28.59644 40971 ft 492 kts 25°
2026-05-08 13:41 3.57829 -28.56468 40972 ft 492 kts 25°
2026-05-08 13:41 3.63888 -28.53296 40968 ft 492 kts 25°
2026-05-08 13:42 3.69919 -28.50138 40968 ft 492 kts 25°
2026-05-08 13:42 3.75996 -28.46956 40967 ft 494 kts 25°
2026-05-08 13:43 3.82082 -28.43769 40968 ft 494 kts 25°
2026-05-08 13:43 3.88176 -28.40577 40969 ft 494 kts 25°
2026-05-08 13:44 3.94223 -28.37409 40968 ft 494 kts 25°
2026-05-08 13:44 4.00315 -28.34217 40969 ft 494 kts 25°
2026-05-08 13:45 4.06405 -28.31025 40969 ft 495 kts 25°
2026-05-08 13:45 4.12511 -28.27824 40966 ft 495 kts 25°
2026-05-08 13:46 4.18575 -28.24645 40968 ft 495 kts 25°
2026-05-08 13:46 4.24685 -28.21441 40968 ft 495 kts 25°
2026-05-08 13:47 4.30793 -28.18238 40968 ft 495 kts 25°
2026-05-08 13:47 4.36897 -28.15036 40969 ft 495 kts 25°
2026-05-08 13:48 4.43010 -28.11829 40965 ft 496 kts 25°
2026-05-08 13:48 4.49078 -28.08645 40966 ft 496 kts 25°
2026-05-08 13:49 4.55191 -28.05437 40967 ft 495 kts 25°
2026-05-08 13:49 4.61287 -28.02236 40969 ft 495 kts 25°
2026-05-08 13:50 4.67383 -27.99035 40967 ft 494 kts 25°
2026-05-08 13:50 4.73437 -27.95856 40970 ft 495 kts 25°
2026-05-08 13:51 4.79536 -27.92653 40965 ft 495 kts 25°
2026-05-08 13:51 4.85640 -27.89447 40967 ft 495 kts 25°
2026-05-08 13:52 4.91741 -27.86241 40966 ft 495 kts 25°
2026-05-08 13:52 4.97847 -27.83031 40967 ft 495 kts 25°
2026-05-08 13:53 5.03908 -27.79845 40969 ft 495 kts 25°
2026-05-08 13:53 5.10010 -27.76637 40969 ft 495 kts 25°
2026-05-08 13:54 5.16106 -27.73431 40965 ft 494 kts 25°
2026-05-08 13:54 5.22193 -27.70229 40966 ft 494 kts 25°
2026-05-08 13:55 5.28236 -27.67049 40966 ft 494 kts 25°
2026-05-08 13:56 5.37361 -27.62247 40966 ft 494 kts 25°
2026-05-08 13:56 5.43446 -27.59044 40967 ft 494 kts 25°
2026-05-08 13:57 5.49534 -27.55838 40965 ft 494 kts 25°
2026-05-08 13:57 5.55582 -27.52653 40966 ft 494 kts 25°
2026-05-08 13:58 5.61675 -27.49443 40963 ft 494 kts 25°
2026-05-08 13:58 5.67761 -27.46236 40966 ft 494 kts 25°
2026-05-08 13:59 5.73843 -27.43030 40966 ft 493 kts 25°
2026-05-08 13:59 5.79881 -27.39847 40966 ft 494 kts 25°
2026-05-08 14:00 5.85973 -27.36635 40966 ft 494 kts 24°
2026-05-08 14:00 5.92060 -27.33425 40968 ft 494 kts 24°
2026-05-08 14:01 5.98152 -27.30211 40966 ft 494 kts 25°
2026-05-08 14:01 6.04206 -27.27016 40963 ft 494 kts 25°
2026-05-08 14:02 6.10295 -27.23802 40968 ft 495 kts 25°
2026-05-08 14:02 6.16396 -27.20581 40967 ft 496 kts 25°
2026-05-08 14:03 6.22508 -27.17354 40964 ft 496 kts 25°
2026-05-08 14:03 6.28582 -27.14145 40963 ft 497 kts 25°
2026-05-08 14:04 6.34698 -27.10914 40966 ft 497 kts 25°
2026-05-08 14:04 6.40822 -27.07676 40969 ft 497 kts 25°
2026-05-08 14:05 6.46945 -27.04440 40970 ft 497 kts 25°
2026-05-08 14:05 6.53063 -27.01202 40972 ft 497 kts 25°
2026-05-08 14:06 6.59142 -26.97982 40971 ft 497 kts 25°
2026-05-08 14:06 6.65259 -26.94743 40967 ft 497 kts 25°
2026-05-08 14:07 6.71382 -26.91500 40968 ft 497 kts 25°
2026-05-08 14:07 6.77501 -26.88258 40976 ft 497 kts 25°
2026-05-08 14:08 6.83625 -26.85012 40968 ft 497 kts 25°
2026-05-08 14:08 6.89701 -26.81791 40969 ft 497 kts 25°
2026-05-08 14:09 6.95812 -26.78550 40972 ft 497 kts 25°
2026-05-08 14:09 7.01925 -26.75307 40971 ft 497 kts 25°
2026-05-08 14:10 7.08039 -26.72064 40971 ft 497 kts 25°
2026-05-08 14:10 7.14108 -26.68842 40973 ft 497 kts 25°
2026-05-08 14:11 7.20217 -26.65598 40968 ft 497 kts 24°
2026-05-08 14:11 7.26332 -26.62351 40969 ft 497 kts 24°
2026-05-08 14:12 7.32440 -26.59106 40971 ft 496 kts 24°
2026-05-08 14:12 7.38514 -26.55878 40971 ft 497 kts 24°
2026-05-08 14:13 7.44625 -26.52630 40974 ft 497 kts 24°
2026-05-08 14:13 7.50737 -26.49380 40977 ft 497 kts 24°
2026-05-08 14:14 7.56847 -26.46130 40977 ft 497 kts 24°
2026-05-08 14:14 7.62960 -26.42877 40974 ft 497 kts 25°
2026-05-08 14:15 7.69035 -26.39643 40971 ft 497 kts 25°
2026-05-08 14:15 7.75148 -26.36388 40974 ft 497 kts 25°
2026-05-08 14:16 7.81262 -26.33132 40975 ft 497 kts 25°
2026-05-08 14:16 7.87369 -26.29878 40974 ft 496 kts 25°
2026-05-08 14:17 7.93426 -26.26650 40974 ft 495 kts 25°
2026-05-08 14:17 7.99514 -26.23403 40974 ft 495 kts 25°
2026-05-08 14:18 8.05606 -26.20155 40976 ft 495 kts 25°
2026-05-08 14:18 8.11694 -26.16907 40977 ft 495 kts 25°
2026-05-08 14:19 8.17742 -26.13679 40978 ft 495 kts 25°
2026-05-08 14:19 8.23841 -26.10423 40977 ft 496 kts 25°
2026-05-08 14:20 8.29948 -26.07162 40977 ft 497 kts 25°
2026-05-08 14:20 8.36059 -26.03898 40977 ft 497 kts 25°
2026-05-08 14:21 8.42172 -26.00632 40981 ft 497 kts 25°
2026-05-08 14:21 8.48245 -25.97387 40979 ft 497 kts 25°
2026-05-08 14:22 8.54354 -25.94121 40984 ft 497 kts 24°
2026-05-08 14:22 8.60485 -25.90844 40982 ft 499 kts 24°
2026-05-08 14:23 8.66629 -25.87557 40979 ft 500 kts 24°
2026-05-08 14:23 8.72772 -25.84269 40980 ft 500 kts 24°
2026-05-08 14:24 8.78882 -25.80998 40982 ft 500 kts 24°
2026-05-08 14:24 8.85026 -25.77708 40982 ft 500 kts 24°
2026-05-08 14:25 8.91174 -25.74414 40982 ft 500 kts 24°
2026-05-08 14:25 8.97333 -25.71114 40982 ft 501 kts 24°
2026-05-08 14:26 9.03492 -25.67812 40983 ft 501 kts 24°
2026-05-08 14:26 9.09615 -25.64527 40982 ft 501 kts 24°
2026-05-08 14:27 9.15773 -25.61223 40985 ft 501 kts 24°
2026-05-08 14:27 9.21932 -25.57917 40985 ft 501 kts 24°
2026-05-08 14:28 9.28089 -25.54611 40986 ft 502 kts 24°
2026-05-08 14:28 9.34223 -25.51316 40985 ft 502 kts 24°
2026-05-08 14:29 9.40396 -25.47999 40985 ft 502 kts 24°
2026-05-08 14:29 9.46573 -25.44677 40985 ft 502 kts 24°
2026-05-08 14:30 9.52745 -25.41358 40984 ft 502 kts 24°
2026-05-08 14:30 9.58880 -25.38057 40985 ft 503 kts 24°
2026-05-08 14:31 9.65069 -25.34726 40986 ft 505 kts 24°
2026-05-08 14:31 9.71277 -25.31383 40985 ft 505 kts 24°
2026-05-08 14:32 9.80586 -25.26366 40985 ft 505 kts 24°
2026-05-08 14:32 9.86754 -25.23041 40985 ft 505 kts 24°
2026-05-08 14:33 9.92961 -25.19696 40982 ft 505 kts 24°
2026-05-08 14:33 9.99168 -25.16346 40982 ft 505 kts 24°
2026-05-08 14:34 10.05373 -25.12989 40988 ft 505 kts 24°
2026-05-08 14:34 10.11534 -25.09657 40988 ft 505 kts 24°
2026-05-08 14:35 10.17740 -25.06300 40985 ft 505 kts 24°
2026-05-08 14:35 10.23944 -25.02944 40985 ft 505 kts 24°
2026-05-08 14:36 10.30148 -24.99586 40990 ft 505 kts 24°
2026-05-08 14:36 10.36314 -24.96247 40987 ft 506 kts 24°
2026-05-08 14:37 10.42538 -24.92876 40985 ft 507 kts 24°
2026-05-08 14:37 10.48756 -24.89505 40987 ft 507 kts 24°
2026-05-08 14:38 10.54976 -24.86132 40988 ft 507 kts 24°
2026-05-08 14:38 10.61191 -24.82760 40988 ft 507 kts 24°
2026-05-08 14:39 10.67373 -24.79405 40983 ft 507 kts 24°
2026-05-08 14:39 10.73603 -24.76022 40985 ft 508 kts 24°
2026-05-08 14:40 10.79836 -24.72636 40983 ft 508 kts 24°
2026-05-08 14:40 10.86068 -24.69249 40989 ft 508 kts 24°
2026-05-08 14:41 10.92256 -24.65883 40989 ft 508 kts 24°
2026-05-08 14:41 10.98486 -24.62494 41003 ft 508 kts 24°
2026-05-08 14:42 11.04718 -24.59102 40988 ft 508 kts 24°
2026-05-08 14:42 11.10959 -24.55703 40988 ft 509 kts 24°
2026-05-08 14:43 11.17158 -24.52326 40991 ft 509 kts 24°
2026-05-08 14:43 11.23397 -24.48925 40991 ft 509 kts 24°
2026-05-08 14:44 11.29638 -24.45521 40991 ft 509 kts 24°
2026-05-08 14:44 11.35874 -24.42118 40991 ft 509 kts 24°
2026-05-08 14:45 11.42117 -24.38710 40991 ft 509 kts 24°
2026-05-08 14:45 11.48316 -24.35324 40990 ft 509 kts 24°
2026-05-08 14:46 11.54563 -24.31911 40991 ft 509 kts 24°
2026-05-08 14:46 11.60814 -24.28493 40990 ft 509 kts 24°
2026-05-08 14:47 11.67059 -24.25076 40990 ft 509 kts 24°
2026-05-08 14:47 11.73262 -24.21681 40991 ft 509 kts 24°
2026-05-08 14:48 11.79500 -24.18265 40990 ft 509 kts 24°
2026-05-08 14:48 11.85741 -24.14846 40991 ft 509 kts 24°
2026-05-08 14:49 11.91979 -24.11426 40993 ft 509 kts 24°
2026-05-08 14:49 11.98176 -24.08028 40993 ft 509 kts 24°
2026-05-08 14:50 12.04415 -24.04604 40996 ft 509 kts 24°
2026-05-08 14:50 12.10657 -24.01177 40990 ft 509 kts 24°
2026-05-08 14:51 12.16896 -23.97749 40990 ft 509 kts 24°
2026-05-08 14:51 12.23142 -23.94317 40990 ft 509 kts 24°
2026-05-08 14:52 12.32459 -23.89192 40990 ft 509 kts 24°
2026-05-08 14:53 12.38699 -23.85758 40999 ft 509 kts 24°
2026-05-08 14:53 12.44935 -23.82324 40990 ft 509 kts 24°
2026-05-08 14:54 12.51120 -23.78916 40990 ft 508 kts 24°
2026-05-08 14:54 12.57349 -23.75482 40990 ft 508 kts 24°
2026-05-08 14:55 12.63578 -23.72047 40988 ft 509 kts 24°
2026-05-08 14:55 12.69815 -23.68605 40988 ft 509 kts 24°
2026-05-08 14:56 12.76012 -23.65182 40989 ft 509 kts 24°
2026-05-08 14:56 12.82230 -23.61746 40990 ft 508 kts 24°
2026-05-08 14:57 12.88445 -23.58310 40990 ft 507 kts 24°
2026-05-08 14:57 12.94654 -23.54876 40986 ft 507 kts 24°
2026-05-08 14:58 13.00822 -23.51463 40990 ft 507 kts 24°
2026-05-08 14:58 13.07038 -23.48021 40989 ft 507 kts 24°
2026-05-08 14:59 13.12194 -23.45164 40988 ft 506 kts 25°
2026-05-08 14:59 13.22471 -23.39465 40987 ft 505 kts 25°
2026-05-08 15:00 13.28659 -23.36032 40990 ft 506 kts 25°
2026-05-08 15:00 13.33797 -23.33180 40990 ft 506 kts 25°
2026-05-08 15:01 13.39984 -23.29743 40988 ft 506 kts 25°
2026-05-08 15:01 13.47328 -23.26158 40991 ft 499 kts 13°
2026-05-08 15:02 13.52978 -23.25111 40985 ft 488 kts 357°
2026-05-08 15:02 13.59629 -23.25677 40987 ft 482 kts 347°
2026-05-08 15:03 13.66254 -23.26775 40987 ft 482 kts 346°
2026-05-08 15:03 13.72861 -23.27934 40987 ft 482 kts 346°
2026-05-08 15:04 13.79476 -23.29064 40994 ft 482 kts 347°
2026-05-08 15:04 13.86051 -23.30163 40993 ft 482 kts 347°
2026-05-08 15:05 13.92675 -23.31265 40990 ft 482 kts 347°
2026-05-08 15:05 13.99294 -23.32366 40990 ft 482 kts 347°
2026-05-08 15:06 14.05921 -23.33471 40990 ft 482 kts 347°
2026-05-08 15:06 14.12497 -23.34568 40992 ft 482 kts 347°
2026-05-08 15:07 14.19108 -23.35672 40996 ft 481 kts 347°
2026-05-08 15:07 14.25719 -23.36777 40993 ft 481 kts 347°
2026-05-08 15:08 14.32328 -23.37882 40992 ft 481 kts 347°
2026-05-08 15:08 14.35630 -23.38434 40805 ft 481 kts 347°
2026-05-08 15:08 14.38934 -23.38987 40561 ft 481 kts 347°
2026-05-08 15:09 14.42192 -23.39533 40324 ft 482 kts 347°
2026-05-08 15:09 14.45504 -23.40087 40082 ft 482 kts 347°
2026-05-08 15:09 14.48810 -23.40641 39840 ft 482 kts 347°
2026-05-08 15:09 14.52120 -23.41195 39510 ft 481 kts 347°
2026-05-08 15:10 14.55413 -23.41746 38952 ft 479 kts 347°
2026-05-08 15:10 14.58698 -23.42296 38323 ft 478 kts 347°
2026-05-08 15:10 14.61976 -23.42846 37707 ft 476 kts 347°
2026-05-08 15:10 14.65235 -23.43392 37103 ft 474 kts 347°
2026-05-08 15:11 14.68489 -23.43938 36483 ft 473 kts 347°
2026-05-08 15:11 14.71689 -23.44475 35866 ft 472 kts 347°
2026-05-08 15:11 14.74929 -23.45020 35233 ft 472 kts 348°
2026-05-08 15:11 14.78177 -23.45566 34575 ft 473 kts 348°
2026-05-08 15:12 14.81438 -23.46114 33811 ft 476 kts 348°
2026-05-08 15:12 14.84714 -23.46666 33007 ft 478 kts 348°
2026-05-08 15:12 14.88003 -23.47219 32300 ft 478 kts 349°
2026-05-08 15:12 14.91281 -23.47745 31701 ft 477 kts 352°
2026-05-08 15:13 14.94598 -23.47795 31030 ft 479 kts
2026-05-08 15:13 14.97878 -23.47216 30391 ft 480 kts 11°
2026-05-08 15:13 15.01096 -23.46476 29761 ft 478 kts 11°
2026-05-08 15:13 15.04326 -23.45706 29141 ft 475 kts 12°
2026-05-08 15:14 15.07528 -23.44937 28560 ft 471 kts 11°
2026-05-08 15:14 15.10708 -23.44172 27963 ft 467 kts 12°
2026-05-08 15:14 15.13859 -23.43413 27397 ft 463 kts 12°
2026-05-08 15:14 15.16985 -23.42660 26823 ft 459 kts 12°
2026-05-08 15:15 15.20087 -23.41913 26269 ft 456 kts 12°
2026-05-08 15:15 15.23164 -23.41172 25707 ft 453 kts 12°
2026-05-08 15:15 15.26182 -23.40444 25161 ft 450 kts 12°
2026-05-08 15:15 15.29212 -23.39713 24598 ft 447 kts 13°
2026-05-08 15:16 15.32234 -23.38984 24039 ft 444 kts 13°
2026-05-08 15:16 15.35232 -23.38260 23450 ft 442 kts 13°
2026-05-08 15:16 15.38213 -23.37540 22838 ft 438 kts 13°
2026-05-08 15:16 15.41167 -23.36827 22268 ft 433 kts 13°
2026-05-08 15:17 15.44087 -23.36121 21703 ft 429 kts 13°
2026-05-08 15:17 15.46980 -23.35422 21145 ft 425 kts 13°
2026-05-08 15:17 15.49847 -23.34729 20578 ft 421 kts 13°
2026-05-08 15:17 15.52689 -23.34042 20024 ft 418 kts 13°
2026-05-08 15:18 15.55510 -23.33359 19466 ft 415 kts 13°
2026-05-08 15:18 15.58277 -23.32674 18900 ft 413 kts 14°
2026-05-08 15:18 15.60989 -23.31696 18294 ft 412 kts 22°
2026-05-08 15:18 15.63628 -23.30549 17668 ft 410 kts 23°
2026-05-08 15:19 15.66235 -23.29391 17103 ft 406 kts 23°
2026-05-08 15:19 15.68820 -23.28245 16549 ft 402 kts 23°
2026-05-08 15:19 15.71385 -23.27111 15983 ft 399 kts 23°
2026-05-08 15:19 15.73929 -23.25988 15458 ft 396 kts 23°
2026-05-08 15:20 15.76419 -23.24889 14912 ft 393 kts 22°
2026-05-08 15:20 15.78889 -23.23799 14375 ft 390 kts 22°
2026-05-08 15:20 15.81225 -23.22769 13867 ft 388 kts 22°
2026-05-08 15:20 15.83699 -23.21678 13289 ft 385 kts 22°
2026-05-08 15:21 15.86156 -23.20594 12737 ft 381 kts 22°
2026-05-08 15:21 15.88583 -23.19523 12201 ft 377 kts 22°
2026-05-08 15:21 15.90982 -23.18464 11676 ft 373 kts 22°
2026-05-08 15:21 15.93338 -23.17424 11441 ft 360 kts 22°
2026-05-08 15:22 15.95594 -23.16427 11335 ft 344 kts 22°
2026-05-08 15:22 15.97749 -23.15475 11228 ft 330 kts 22°
2026-05-08 15:22 15.99791 -23.14573 11099 ft 317 kts 22°
2026-05-08 15:22 16.01784 -23.13692 10945 ft 305 kts 22°
2026-05-08 15:23 16.03721 -23.12836 10613 ft 302 kts 22°
2026-05-08 15:23 16.05645 -23.11986 10285 ft 299 kts 22°
2026-05-08 15:23 16.07546 -23.11146 9967 ft 295 kts 22°
2026-05-08 15:23 16.09464 -23.10298 9624 ft 306 kts 22°
2026-05-08 15:24 16.11434 -23.09427 9311 ft 309 kts 22°
2026-05-08 15:24 16.13405 -23.08555 8980 ft 307 kts 22°
2026-05-08 15:24 16.15362 -23.07688 8668 ft 305 kts 22°
2026-05-08 15:24 16.17279 -23.06840 8349 ft 302 kts 22°
2026-05-08 15:25 16.19205 -23.05987 8079 ft 300 kts 21°
2026-05-08 15:25 16.21129 -23.05135 7854 ft 300 kts 22°
2026-05-08 15:25 16.23043 -23.04287 7552 ft 298 kts 21°
2026-05-08 15:25 16.24945 -23.03445 7234 ft 297 kts 21°
2026-05-08 15:26 16.26840 -23.02605 6918 ft 295 kts 21°
2026-05-08 15:26 16.28720 -23.01772 6599 ft 293 kts 21°
2026-05-08 15:26 16.30592 -23.00942 6260 ft 292 kts 21°
2026-05-08 15:26 16.32449 -23.00119 5926 ft 289 kts 21°
2026-05-08 15:27 16.34289 -22.99302 5621 ft 287 kts 20°
2026-05-08 15:27 16.36097 -22.98501 5315 ft 285 kts 21°
2026-05-08 15:27 16.37912 -22.97696 5014 ft 282 kts 21°
2026-05-08 15:27 16.39699 -22.96902 4788 ft 274 kts 21°
2026-05-08 15:28 16.41411 -22.96142 4685 ft 261 kts 21°
2026-05-08 15:28 16.43057 -22.95410 4474 ft 254 kts 21°
2026-05-08 15:28 16.44700 -22.94770 4126 ft 250 kts
2026-05-08 15:28 16.46411 -22.94662 3895 ft 245 kts 359°
2026-05-08 15:29 16.48101 -22.94682 3643 ft 242 kts 358°
2026-05-08 15:29 16.49748 -22.94708 3395 ft 237 kts 359°
2026-05-08 15:29 16.51382 -22.94730 3138 ft 234 kts 359°
2026-05-08 15:29 16.53005 -22.94755 2812 ft 232 kts 360°
2026-05-08 15:30 16.54603 -22.94776 2596 ft 227 kts 360°
2026-05-08 15:30 16.56161 -22.94814 2386 ft 220 kts
2026-05-08 15:30 16.57625 -22.94832 2424 ft 198 kts
2026-05-08 15:30 16.58935 -22.94809 2441 ft 179 kts
2026-05-08 15:31 16.60142 -22.94808 2313 ft 168 kts
2026-05-08 15:31 16.61290 -22.94823 2128 ft 161 kts 360°
2026-05-08 15:31 16.62375 -22.94821 1930 ft 155 kts
2026-05-08 15:31 16.63423 -22.94822 1753 ft 145 kts 360°
2026-05-08 15:32 16.64390 -22.94833 1624 ft 132 kts 359°
2026-05-08 15:32 16.65299 -22.94838 1466 ft 131 kts
2026-05-08 15:32 16.66203 -22.94836 1350 ft 129 kts
2026-05-08 15:32 16.67118 -22.94812 1197 ft 134 kts
2026-05-08 15:33 16.68050 -22.94835 1008 ft 133 kts 358°
2026-05-08 15:33 16.68962 -22.94866 823 ft 131 kts
2026-05-08 15:33 16.69886 -22.94865 685 ft 134 kts
2026-05-08 15:33 16.70810 -22.94878 532 ft 131 kts
2026-05-08 15:34 16.71697 -22.94886 360 ft 127 kts
2026-05-08 15:34 16.72573 -22.94891 219 ft 123 kts
2026-05-08 15:34 16.73345 -22.94892 203 ft 92 kts 359°
2026-05-08 15:34 16.73853 -22.94896 207 ft 54 kts 360°
2026-05-08 15:35 16.74107 -22.94898 204 ft 24 kts 360°
2026-05-08 15:35 16.74209 -22.94876 203 ft 13 kts 37°
2026-05-08 15:35 16.74265 -22.94798 207 ft 14 kts 58°
2026-05-08 15:35 16.74293 -22.94729 206 ft 6 kts 108°
2026-05-08 15:36 16.74247 -22.94701 195 ft 10 kts 165°
2026-05-08 15:36 16.74170 -22.94700 207 ft 12 kts 180°
2026-05-08 15:36 16.74072 -22.94698 195 ft 16 kts 179°
2026-05-08 15:36 16.73960 -22.94697 197 ft 15 kts 179°
2026-05-08 15:37 16.73883 -22.94697 210 ft 12 kts 180°
2026-05-08 15:37 16.73792 -22.94697 216 ft 15 kts 180°
2026-05-08 15:37 16.73681 -22.94696 212 ft 17 kts 179°
2026-05-08 15:37 16.73605 -22.94627 217 ft 15 kts 127°
2026-05-08 15:38 16.73553 -22.94599 217 ft 4 kts 172°
2026-05-08 15:38 16.73510 -22.94596 212 ft 9 kts 177°
2026-05-08 15:38 16.73440 -22.94595 218 ft 12 kts 182°
2026-05-08 15:38 16.73371 -22.94594 215 ft 3 kts 160°
2026-05-08 15:39 16.73366 -22.94582 216 ft 2 kts 105°
2026-05-08 15:39 16.73365 -22.94549 212 ft 4 kts 91°
2026-05-08 15:39 16.73365 -22.94516 210 ft 2 kts 90°
2026-05-08 15:39 16.73365 -22.94504 214 ft 0 kts 90°